sat.trackr.live / text

‹ back to catalog

STARLINK-36100

NORAD 66942 · 2025-286T

PAYLOAD ACTIVE UNKNOWN

§ Identity

Operator
Country
US
Launch date
2025-12-07
Launch site
AFWTR
Launch vehicle
Mass (kg)
RCS (m²)

Purposes: comms

External: N2YO · Heavens-Above · Gunter

§ Orbital elements

Epoch: 2026-09-20T03:50:39.018912Z

Period
93.85 min
Inclination
53.1595°
Eccentricity
0.0001169
Mean motion
15.34409312 rev/d
Perigee alt
461.9 km
Apogee alt
463.5 km
Semi-major
6,840.8 km
B*
4.3629e-4
RAAN
171.4283°
Arg perigee
89.7789°
Mean anomaly
270.3347°
Rev number
4,517

§ Raw data

STARLINK-361001 66942U 25286T   26263.16017383  .00014397  00000+0  43629-3 0  99982 66942  53.1595 171.4283 0001169  89.7789 270.3347 15.34409312 45173

JSON: /api/v1/satellites/66942 · /tle

For live sub-satellite position, see the globe view (requires WebGL).

§ Visibility from observer

Set your observer location to see the next 7 days of passes ≥ 10°. The values pass through the URL so the page stays shareable.

No JS? Fill the form by hand. The geolocation button needs JavaScript.